Flag for U.S.A. Weather past 2 weeks in Midland, Texas, U.S.A.

Now
80 °F

Sunny.


Feels Like: 78 °F
Forecast: 48 / 78 °F
Wind: 15 mph from South

Location: Midland - Midland Airpark


UV Index: 7 (High)

Visibility: 10 mi


Pressure: 29.82 "Hg

Humidity: 12%

Dew point: 22 °F

Location of MidlandLocation

Historic Weather in Midland

°F

Midland temperature yesterday

Maximum temperature yesterday: 67 °F (at 5:35 PM)
Minimum temperature yesterday: 33 °F (at 6:15 AM)
Average temperature yesterday: 51 °F

Past Weeks' High & Low Weather Summary

 TemperatureHumidityPressure
High92 °F (Apr 12, 3:35 PM)85% (Apr 2, 7:55 AM)30.35 "Hg (Apr 2, 7:55 AM)
Low33 °F (Apr 15, 6:15 AM)4% (Apr 10, 5:15 PM)29.65 "Hg (Apr 13, 5:35 PM)
Average66 °F29%29.96 "Hg
* Reported Apr 1 2:15 PM — Apr 16 2:15 PM, Midland, Weather by CustomWeather, © 2014

Note: Actual official high and low records may vary slightly from our data, if they occured in-between our weather recording intervals... More about our weather records

Advertising

Historic Weather Conditions — Data for Previous 24 hours

 ConditionsComfort  
Time TempWeatherWind HumidityBarometerVisibility
2:15 PM
Apr 16
77 °FSunny.14 mph12%29.85 "Hg10 mi
1:55 PM77 °FSunny.15 mph12%29.85 "Hg10 mi
1:35 PM75 °FSunny.15 mph13%29.87 "Hg10 mi
1:15 PM74 °FSunny.16 mph13%29.87 "Hg10 mi
12:55 PM73 °FSunny.15 mph13%29.88 "Hg10 mi
12:35 PM71 °FSunny.15 mph14%29.89 "Hg10 mi
12:15 PM69 °FSunny.17 mph14%29.89 "Hg10 mi
11:55 AM67 °FSunny.15 mph15%29.90 "Hg10 mi
11:35 AM67 °FSunny.20 mph15%29.91 "Hg10 mi
11:15 AM66 °FSunny.15 mph16%29.91 "Hg10 mi
10:55 AM63 °FSunny.18 mph18%29.91 "Hg10 mi
10:15 AM59 °FSunny.17 mph20%29.91 "Hg10 mi
9:55 AM57 °FSunny.15 mph21%29.91 "Hg10 mi
9:35 AM55 °FSunny.18 mph23%29.91 "Hg10 mi
9:15 AM54 °FSunny.17 mph23%29.92 "Hg10 mi
8:55 AM52 °FSunny.17 mph24%29.92 "Hg10 mi
8:15 AM50 °FClear.14 mph25%29.91 "Hg10 mi
7:55 AM49 °FClear.15 mph26%29.92 "Hg10 mi
7:15 AM50 °FClear.16 mph26%29.91 "Hg10 mi
6:55 AM50 °FClear.17 mph26%29.90 "Hg10 mi
6:35 AM50 °FClear.15 mph26%29.90 "Hg10 mi
6:15 AM50 °FClear.16 mph26%29.90 "Hg10 mi
5:55 AM51 °FClear.14 mph25%29.91 "Hg10 mi
5:35 AM51 °FClear.16 mph25%29.91 "Hg10 mi
5:15 AM51 °FClear.16 mph25%29.91 "Hg10 mi
4:55 AM52 °FClear.16 mph24%29.91 "Hg10 mi
4:35 AM51 °FClear.16 mph25%29.91 "Hg10 mi
4:15 AM51 °FClear.15 mph24%29.92 "Hg10 mi
3:55 AM51 °FClear.15 mph24%29.93 "Hg10 mi
3:35 AM50 °FClear.13 mph24%29.94 "Hg10 mi
3:15 AM50 °FClear.13 mph23%29.94 "Hg10 mi
2:55 AM50 °FClear.14 mph22%29.94 "Hg10 mi
2:15 AM51 °FClear.12 mph21%29.96 "Hg10 mi
1:55 AM52 °FClear.15 mph20%29.96 "Hg10 mi
1:15 AM53 °FClear.13 mph18%29.98 "Hg10 mi
12:55 AM54 °FClear.14 mph17%29.99 "Hg10 mi
12:35 AM54 °FClear.15 mph16%29.99 "Hg10 mi
12:15 AM54 °FClear.15 mph15%30.00 "Hg10 mi
11:55 PM
Apr 15
54 °FClear.15 mph15%30.00 "Hg10 mi
11:35 PM54 °FClear.13 mph15%30.01 "Hg10 mi
11:15 PM55 °FClear.14 mph14%30.01 "Hg10 mi
10:55 PM56 °FClear.14 mph14%30.01 "Hg10 mi
10:15 PM58 °FClear.14 mph14%30.01 "Hg10 mi
9:55 PM59 °FClear.13 mph13%30.01 "Hg10 mi
9:35 PM60 °FClear.13 mph13%30.01 "Hg10 mi
9:15 PM60 °FSunny.10 mph12%30.01 "Hg10 mi
8:55 PM61 °FSunny.12 mph12%30.01 "Hg10 mi
8:35 PM62 °FSunny.10 mph12%30.01 "Hg10 mi
8:15 PM63 °FSunny.10 mph11%30.02 "Hg10 mi
7:55 PM64 °FSunny.14 mph11%30.02 "Hg10 mi
7:35 PM65 °FSunny.12 mph11%30.03 "Hg10 mi
5:55 PM67 °FSunny.18 mph10%30.07 "Hg10 mi
5:35 PM67 °FSunny.10 mph11%30.07 "Hg10 mi
5:15 PM66 °FSunny.13 mph11%30.08 "Hg10 mi
4:55 PM66 °FSunny.14 mph11%30.10 "Hg10 mi
4:15 PM65 °FSunny.14 mph11%30.13 "Hg10 mi
3:55 PM65 °FSunny.14 mph11%30.14 "Hg10 mi
3:35 PM64 °FSunny.10 mph11%30.16 "Hg10 mi
3:15 PM64 °FSunny.12 mph11%30.18 "Hg10 mi
Weather by CustomWeather, © 2014

See weather overview